Regional Weather Roundup
Issued by NWS Goodland, KS

Home | Current Version | Previous Version | Graphics & Text | Print | Product List | Glossary On
Versions: 1 2 3 4 5 6 7 8 9 10 11 12 13 14 15 16 17 18 19 20 21 22 23 24 25 26 27 28 29 30 31 32 33 34 35 36 37 38 39 40 41 42 43 44 45 46 47 48 49 50
000
ASUS43 KGLD 281459
RWRGLD

GOODLAND FORECAST AREA HOURLY WEATHER ROUNDUP
NATIONAL WEATHER SERVICE GOODLAND KS
900 AM MDT FRI AUG 28 2015

...OFFICIAL OBSERVATIONS...

CITY           SKY/WX    TMP DP  RH WIND       PRES   REMARKS
GOODLAND KS    SUNNY     77  56  48 NW15G22   30.07R
HILL CITY KS   SUNNY     77  64  64 NW12      29.96R
IMPERIAL NEB   SUNNY     75  54  47 NW14      30.03S
MCCOOK NEB     SUNNY     75  59  57 NW16      29.97F
AKRON CO       MOSUNNY   68  57  68 W13       30.16S
BURLINGTON CO  MOSUNNY   74  55  51 NW13      30.14R
LIMON CO       SUNNY     69  52  54 N14       30.23R
$$

...UNOFFICIAL OBSERVATIONS...

CITY           SKY/WX    TMP DP  RH WIND       PRES   REMARKS
COLBY KS       SUNNY     77  59  53 NW16      30.03S
GOVE KS          N/A     75  32  20 MISG        N/A
LENORA KS        N/A     73  32  22 MISG        N/A
NORTON KS      SUNNY     73  59  60 NW13G20   29.95R
SHARON SPRINGS   N/A     74  60  61 NW10G20     N/A
KIT CARSON CO    N/A     72  56  57 MISG        N/A
YUMA CO          N/A     71  58  64 NW10        N/A
$$



USA.gov is the U.S. government's official web portal to all federal, state and local government web resources and services.